Location: Seattle
(47.6064°N, 122.3308°W)
Time: 16:16:03
(UTC-07:00)

PCSat - Visible Passes

Search period start: 30 March 2023 00:00
Search period end: 09 April 2023 00:00
Orbit: 784 x 794 km, 67.1° (Epoch: 30 March)

Date Brightness Start Highest point End Pass type
(mag) Time Alt. Az. Time Alt. Az. Time Alt. Az.
30 Mar 11.5 00:22:03 10° NNW 00:24:55 26° N 00:24:55 26° N visible
30 Mar 12.2 02:05:23 10° NW 02:05:35 11° NW 02:05:35 11° NW visible
30 Mar 12.3 20:23:27 10° NNW 20:24:14 10° NNW 20:25:01 10° N visible
30 Mar 12.1 22:08:41 10° N 22:10:18 11° NNE 22:11:56 10° NNE visible
30 Mar 11.3 23:50:52 10° NNW 23:54:20 26° NNE 23:54:20 26° NNE visible
31 Mar 12.0 01:33:59 10° NW 01:35:01 16° NW 01:35:01 16° NW visible
31 Mar 12.2 21:37:53 10° N 21:38:35 10° N 21:39:16 10° NNE visible
31 Mar 11.3 23:19:42 10° NNW 23:23:46 24° NNE 23:23:46 24° NNE visible
01 Apr 11.7 01:02:38 10° NW 01:04:27 22° NW 01:04:27 22° NW visible
01 Apr 11.4 22:48:33 10° NNW 22:52:30 20° NNE 22:53:14 19° NE visible
02 Apr 11.3 00:31:20 10° NNW 00:33:54 29° NNW 00:33:54 29° NNW visible
02 Apr 11.6 22:17:25 10° NNW 22:20:53 17° NNE 22:22:42 15° NE visible
03 Apr 10.9 00:00:04 10° NNW 00:03:22 36° N 00:03:22 36° N visible
03 Apr 12.2 01:44:02 10° NW 01:44:03 10° NW 01:44:03 10° NW visible
03 Apr 11.8 21:46:18 10° N 21:49:15 14° NNE 21:52:11 10° ENE visible
03 Apr 10.7 23:28:49 10° NNW 23:32:51 39° NNE 23:32:51 39° NNE visible
04 Apr 11.9 01:12:25 10° NW 01:13:32 16° NW 01:13:32 16° NW visible
04 Apr 11.9 21:15:14 10° N 21:17:34 13° NNE 21:19:54 10° NE visible
04 Apr 10.6 22:57:36 10° NNW 23:02:21 35° NE 23:02:21 35° NE visible
05 Apr 11.5 00:40:56 10° NW 00:43:02 23° NW 00:43:02 23° NW visible
05 Apr 11.9 20:44:12 10° N 20:45:51 11° NNE 20:47:29 10° NNE visible
05 Apr 10.8 22:26:24 10° NNW 22:31:07 29° NE 22:31:53 28° NE visible
06 Apr 11.0 00:09:31 10° NW 00:12:34 33° NW 00:12:34 33° NW visible
06 Apr 12.0 20:13:24 10° N 20:14:07 10° NNE 20:14:49 10° NNE visible
06 Apr 11.1 21:55:14 10° NNW 21:59:36 24° NE 22:01:25 20° ENE visible
06 Apr 10.3 23:38:09 10° NW 23:42:06 49° NW 23:42:06 49° NW visible
07 Apr 11.4 21:24:04 10° NNW 21:28:01 20° NNE 21:30:59 13° ENE visible
07 Apr 9.8 23:06:51 10° NNW 23:11:40 67° N 23:11:40 67° N visible
08 Apr 12.0 00:51:21 10° WNW 00:52:21 13° WNW 00:52:21 13° WNW visible
08 Apr 11.6 20:52:55 10° NNW 20:56:24 17° NNE 20:59:53 10° ENE visible
08 Apr 9.7 22:35:34 10° NNW 22:40:57 58° NE 22:41:15 57° ENE visible
